Terminal Aerodrome Forecast
Issued by NWS

Home | Current Version | Previous Version | Text Only | Print | Product List | Glossary Off
Versions: 1 2 3 4 5 6 7 8 9 10 11 12 13 14 15 16

234
FTUS45 KGGW 202012 AAA
TAFSDY
TAF AMD
KSDY 202012Z 2020/2118 03015G25KT 6SM -TSRA BKN100CB
     FM202100 10011KT P6SM -SHRA BKN090
      TEMPO 2021/2024 6SM TSGR OVC040CB
     FM210000 10014KT P6SM VCTS FEW100CB
     FM210100 09012KT P6SM FEW110
     FM210600 VRB03KT P6SM SCT170=

USA.gov is the U.S. government's official web portal to all federal, state and local government web resources and services.